MSR741 HECA-LCLK

Flight info

Callsign MSR741
Flight time 1h 15m
Altitude 24000
Route CVO A16 DEGDI/N0447F350 DCT SENTO/N0451F360 Q777 IMPIP N307 LAKTO N71 STEPA/N0445F350 DCT ODELO DCT EMEDA
Aircraft B738/M-SDE2E3FGHIRWXY/LB1

Departure

Time 2026-05-04 17:24
Airport Cairo International Airport (HECA)

Arrival

Time 2026-05-04 18:40
Airport Larnaca International Airport (LCLK)
Time Latitude Longitude Altitude Speed Heading
2026-05-04 16:47 30.10734 31.39352 386 ft 0 kts 255°
2026-05-04 17:10 30.10737 31.39360 386 ft 2 kts 248°
2026-05-04 17:11 30.10741 31.39377 386 ft 2 kts 257°
2026-05-04 17:11 30.10745 31.39393 386 ft 2 kts 254°
2026-05-04 17:11 30.10751 31.39421 386 ft 2 kts 245°
2026-05-04 17:12 30.10761 31.39433 386 ft 2 kts 203°
2026-05-04 17:12 30.10780 31.39434 386 ft 1 kts 162°
2026-05-04 17:13 30.10783 31.39433 386 ft 0 kts 164°
2026-05-04 17:15 30.10695 31.39460 386 ft 13 kts 165°
2026-05-04 17:16 30.10614 31.39574 386 ft 10 kts 73°
2026-05-04 17:16 30.10519 31.39752 386 ft 15 kts 166°
2026-05-04 17:17 30.10406 31.39788 386 ft 12 kts 164°
2026-05-04 17:17 30.10523 31.40005 386 ft 15 kts 49°
2026-05-04 17:18 30.10595 31.40104 386 ft 16 kts 50°
2026-05-04 17:18 30.10698 31.40303 387 ft 12 kts 121°
2026-05-04 17:19 30.10752 31.40468 387 ft 14 kts 48°
2026-05-04 17:19 30.10951 31.40729 386 ft 27 kts 51°
2026-05-04 17:20 30.11187 31.41046 387 ft 24 kts 49°
2026-05-04 17:20 30.11412 31.41340 387 ft 28 kts 47°
2026-05-04 17:20 30.11550 31.41527 387 ft 31 kts 50°
2026-05-04 17:21 30.11825 31.41896 387 ft 28 kts 49°
2026-05-04 17:21 30.12074 31.42228 387 ft 26 kts 48°
2026-05-04 17:22 30.12178 31.42364 387 ft 18 kts 51°
2026-05-04 17:22 30.12202 31.42466 387 ft 12 kts 119°
2026-05-04 17:23 30.12052 31.42592 387 ft 4 kts 227°
2026-05-04 17:23 30.12049 31.42588 387 ft 2 kts 227°
2026-05-04 17:23 30.11538 31.41909 387 ft 117 kts 230°
2026-05-04 17:24 30.10885 31.41057 387 ft 164 kts 230°
2026-05-04 17:24 30.08404 31.37829 1994 ft 171 kts 235°
2026-05-04 17:25 30.07692 31.36770 2511 ft 164 kts 254°
2026-05-04 17:25 30.08373 31.34464 3096 ft 175 kts 333°
2026-05-04 17:26 30.10980 31.34116 3980 ft 193 kts 354°
2026-05-04 17:26 30.15049 31.33494 5548 ft 203 kts 348°
2026-05-04 17:27 30.18080 31.33045 6153 ft 236 kts 349°
2026-05-04 17:27 30.21554 31.32548 6930 ft 264 kts 349°
2026-05-04 17:28 30.25261 31.32020 8248 ft 271 kts 348°
2026-05-04 17:29 30.30936 31.31204 10389 ft 279 kts 347°
2026-05-04 17:29 30.37178 31.30286 11499 ft 325 kts 347°
2026-05-04 17:30 30.44213 31.29278 13230 ft 347 kts 346°
2026-05-04 17:31 30.49003 31.28593 14645 ft 353 kts 346°
2026-05-04 17:31 30.56422 31.27517 16683 ft 365 kts 345°
2026-05-04 17:32 30.61472 31.26785 17979 ft 371 kts 344°
2026-05-04 17:33 30.69265 31.25649 19708 ft 384 kts 344°
2026-05-04 17:33 30.71933 31.25260 20343 ft 386 kts 344°
2026-05-04 17:34 30.80057 31.24079 21966 ft 396 kts 344°
2026-05-04 17:34 30.82812 31.23679 22412 ft 401 kts 344°
2026-05-04 17:35 30.91050 31.22490 24093 ft 400 kts 344°
2026-05-04 17:35 30.96502 31.21703 24979 ft 391 kts 344°
2026-05-04 17:35 30.99208 31.21310 25425 ft 391 kts 343°
2026-05-04 17:36 31.01899 31.20916 25866 ft 390 kts 343°
2026-05-04 17:36 31.04579 31.20523 26308 ft 389 kts 343°
2026-05-04 17:36 31.07256 31.20130 26752 ft 389 kts 343°
2026-05-04 17:36 31.09944 31.19737 27199 ft 387 kts 343°
2026-05-04 17:37 31.12612 31.19348 27644 ft 385 kts 343°
2026-05-04 17:37 31.15256 31.18962 28091 ft 383 kts 343°
2026-05-04 17:37 31.17901 31.18577 28538 ft 382 kts 344°
2026-05-04 17:37 31.20558 31.18287 28988 ft 383 kts 348°
2026-05-04 17:38 31.23243 31.18361 29426 ft 391 kts 358°
2026-05-04 17:38 31.25930 31.19046 29878 ft 400 kts
2026-05-04 17:38 31.28531 31.20229 30317 ft 403 kts 15°
2026-05-04 17:38 31.31095 31.21649 30752 ft 402 kts 17°
2026-05-04 17:39 31.36033 31.24631 31626 ft 393 kts 18°
2026-05-04 17:39 31.38407 31.26094 32055 ft 387 kts 17°
2026-05-04 17:39 31.40795 31.27562 32497 ft 380 kts 17°
2026-05-04 17:40 31.43098 31.28973 32934 ft 373 kts 17°
2026-05-04 17:40 31.45380 31.30368 33377 ft 364 kts 16°
2026-05-04 17:40 31.47605 31.31722 33810 ft 355 kts 15°
2026-05-04 17:40 31.49773 31.33038 34206 ft 343 kts 15°
2026-05-04 17:41 31.51836 31.34289 34545 ft 330 kts 13°
2026-05-04 17:41 31.53880 31.35348 34863 ft 306 kts
2026-05-04 17:41 31.55842 31.35946 34981 ft 284 kts 351°
2026-05-04 17:41 31.57782 31.36085 34739 ft 275 kts 341°
2026-05-04 17:42 31.59696 31.35954 34446 ft 283 kts 340°
2026-05-04 17:42 31.61727 31.35774 34082 ft 301 kts 342°
2026-05-04 17:42 31.63871 31.35569 33701 ft 318 kts 343°
2026-05-04 17:42 31.66156 31.35356 33098 ft 340 kts 343°
2026-05-04 17:43 31.68545 31.35087 32825 ft 353 kts 343°
2026-05-04 17:43 31.71016 31.34777 32513 ft 364 kts 342°
2026-05-04 17:43 31.73572 31.34453 32245 ft 368 kts 343°
2026-05-04 17:43 31.76120 31.34188 31982 ft 372 kts 344°
2026-05-04 17:44 31.81292 31.33716 31958 ft 371 kts 345°
2026-05-04 17:44 31.86460 31.33217 31970 ft 373 kts 344°
2026-05-04 17:45 31.91616 31.32691 31971 ft 373 kts 344°
2026-05-04 17:45 31.96797 31.32144 31982 ft 377 kts 344°
2026-05-04 17:46 32.02144 31.31558 32105 ft 392 kts 344°
2026-05-04 17:46 32.07719 31.31046 32213 ft 412 kts 349°
2026-05-04 17:47 32.10605 31.31166 32276 ft 426 kts 355°
2026-05-04 17:47 32.13599 31.31684 32341 ft 442 kts
2026-05-04 17:47 32.16610 31.32606 32421 ft 456 kts
2026-05-04 17:47 32.19647 31.33954 32484 ft 470 kts 15°
2026-05-04 17:48 32.22611 31.35705 32604 ft 483 kts 21°
2026-05-04 17:48 32.25472 31.37867 32955 ft 490 kts 28°
2026-05-04 17:48 32.28125 31.40370 33504 ft 492 kts 34°
2026-05-04 17:48 32.30600 31.43210 33740 ft 500 kts 40°
2026-05-04 17:49 32.32835 31.46347 34068 ft 505 kts 47°
2026-05-04 17:49 32.34833 31.49741 34350 ft 507 kts 51°
2026-05-04 17:49 32.36717 31.53275 34602 ft 509 kts 53°
2026-05-04 17:49 32.38557 31.56906 34781 ft 512 kts 54°
2026-05-04 17:50 32.40351 31.60561 35006 ft 513 kts 55°
2026-05-04 17:50 32.42108 31.64205 35324 ft 510 kts 55°
2026-05-04 17:50 32.43837 31.67810 35529 ft 511 kts 56°
2026-05-04 17:50 32.45602 31.71478 35650 ft 512 kts 56°
2026-05-04 17:51 32.47361 31.75130 35850 ft 512 kts 56°
2026-05-04 17:51 32.49122 31.78786 36013 ft 512 kts 56°
2026-05-04 17:51 32.52672 31.86144 36034 ft 515 kts 56°
2026-05-04 17:52 32.56192 31.93454 36028 ft 512 kts 56°
2026-05-04 17:52 32.59730 32.00797 36025 ft 514 kts 56°
2026-05-04 17:53 32.63307 32.08173 36010 ft 515 kts 54°
2026-05-04 17:53 32.67191 32.15270 36016 ft 513 kts 51°
2026-05-04 17:54 32.71285 32.22171 36021 ft 512 kts 49°
2026-05-04 17:54 32.75407 32.29072 36014 ft 513 kts 50°
2026-05-04 17:55 32.79541 32.36006 36018 ft 512 kts 48°
2026-05-04 17:55 32.84052 32.42418 36015 ft 506 kts 40°
2026-05-04 17:56 32.89014 32.48372 35899 ft 504 kts 37°
2026-05-04 17:56 32.91510 32.51232 35606 ft 500 kts 37°
2026-05-04 17:56 32.94031 32.54095 35167 ft 497 kts 37°
2026-05-04 17:57 32.96481 32.56878 35049 ft 489 kts 37°
2026-05-04 17:57 32.98930 32.59671 35027 ft 491 kts 37°
2026-05-04 17:57 33.03915 32.65374 35019 ft 502 kts 37°
2026-05-04 17:58 33.08987 32.71215 35001 ft 510 kts 38°
2026-05-04 17:58 33.14085 32.77132 34985 ft 510 kts 38°
2026-05-04 17:59 33.19121 32.83002 34997 ft 507 kts 38°
2026-05-04 18:00 33.26690 32.91830 34960 ft 508 kts 38°
2026-05-04 18:00 33.31729 32.97716 34971 ft 509 kts 38°
2026-05-04 18:01 33.36820 33.03659 34967 ft 508 kts 38°
2026-05-04 18:01 33.41845 33.09542 34948 ft 507 kts 38°
2026-05-04 18:02 33.49423 33.18443 34973 ft 508 kts 38°
2026-05-04 18:02 33.54454 33.24370 34962 ft 509 kts 39°
2026-05-04 18:03 33.59507 33.30327 34963 ft 510 kts 38°
2026-05-04 18:03 33.64702 33.36060 34953 ft 503 kts 30°
2026-05-04 18:04 33.70604 33.40361 34967 ft 491 kts 18°
2026-05-04 18:05 33.79878 33.45309 34946 ft 485 kts 14°
2026-05-04 18:05 33.86137 33.48420 34959 ft 486 kts 14°
2026-05-04 18:06 33.95528 33.53154 34949 ft 486 kts 14°
2026-05-04 18:06 34.01756 33.56342 34939 ft 486 kts 15°
2026-05-04 18:07 34.07954 33.59532 34943 ft 485 kts 15°
2026-05-04 18:07 34.14185 33.62735 34931 ft 486 kts 15°
2026-05-04 18:08 34.20345 33.65912 34925 ft 483 kts 15°
2026-05-04 18:08 34.26551 33.69113 34949 ft 484 kts 16°
2026-05-04 18:09 34.38862 33.75490 33616 ft 478 kts 15°
2026-05-04 18:10 34.41869 33.77016 33149 ft 466 kts 13°
2026-05-04 18:10 34.44876 33.78245 32934 ft 443 kts
2026-05-04 18:10 34.47825 33.78809 32554 ft 416 kts 352°
2026-05-04 18:10 34.50597 33.78630 32238 ft 391 kts 343°
2026-05-04 18:11 34.53312 33.78310 31610 ft 393 kts 349°
2026-05-04 18:11 34.56050 33.78373 31087 ft 394 kts 356°
2026-05-04 18:11 34.58742 33.78852 30568 ft 396 kts
2026-05-04 18:11 34.61430 33.79750 29940 ft 401 kts 12°
2026-05-04 18:12 34.63986 33.81050 29406 ft 401 kts 19°
2026-05-04 18:12 34.66391 33.82723 28804 ft 403 kts 27°
2026-05-04 18:12 34.68622 33.84766 28263 ft 402 kts 35°
2026-05-04 18:12 34.70623 33.87128 27703 ft 402 kts 44°
2026-05-04 18:13 34.72381 33.89802 27073 ft 403 kts 53°
2026-05-04 18:13 34.73613 33.92810 26567 ft 402 kts 72°
2026-05-04 18:13 34.73512 33.99439 25373 ft 392 kts 115°
2026-05-04 18:14 34.72183 34.02227 24816 ft 379 kts 136°
2026-05-04 18:14 34.70259 34.04294 24235 ft 365 kts 154°
2026-05-04 18:14 34.67949 34.05519 23408 ft 359 kts 174°
2026-05-04 18:15 34.63265 34.04769 22008 ft 330 kts 214°
2026-05-04 18:15 34.59757 34.01315 20678 ft 328 kts 234°
2026-05-04 18:15 34.58540 33.99042 19844 ft 323 kts 251°
2026-05-04 18:16 34.58036 33.96476 19237 ft 312 kts 268°
2026-05-04 18:16 34.58057 33.93888 18966 ft 296 kts 276°
2026-05-04 18:16 34.58353 33.91494 18736 ft 281 kts 283°
2026-05-04 18:17 34.59385 33.86997 17605 ft 278 kts 286°
2026-05-04 18:17 34.59922 33.84777 16973 ft 279 kts 285°
2026-05-04 18:17 34.60955 33.80256 15690 ft 279 kts 284°
2026-05-04 18:18 34.61465 33.77966 15053 ft 279 kts 285°
2026-05-04 18:18 34.62130 33.75829 14789 ft 266 kts 297°
2026-05-04 18:18 34.63230 33.74138 14765 ft 251 kts 317°
2026-05-04 18:18 34.64667 33.72994 14765 ft 243 kts 328°
2026-05-04 18:19 34.67865 33.72052 14777 ft 238 kts 360°
2026-05-04 18:19 34.69511 33.72455 14740 ft 244 kts 12°
2026-05-04 18:19 34.71108 33.73288 14609 ft 256 kts 27°
2026-05-04 18:20 34.72435 33.74733 14444 ft 261 kts 50°
2026-05-04 18:20 34.73370 33.76621 14451 ft 262 kts 62°
2026-05-04 18:20 34.73960 33.78738 14448 ft 269 kts 82°
2026-05-04 18:20 34.73911 33.80999 14452 ft 270 kts 105°
2026-05-04 18:21 34.73288 33.83157 14456 ft 268 kts 119°
2026-05-04 18:21 34.72310 33.85056 14450 ft 264 kts 137°
2026-05-04 18:21 34.70913 33.86420 14453 ft 256 kts 159°
2026-05-04 18:21 34.69260 33.87244 14344 ft 255 kts 167°
2026-05-04 18:22 34.67596 33.87965 13972 ft 259 kts 165°
2026-05-04 18:22 34.65864 33.88757 13706 ft 264 kts 165°
2026-05-04 18:22 34.64126 33.89564 13456 ft 268 kts 165°
2026-05-04 18:22 34.62379 33.90373 13105 ft 270 kts 165°
2026-05-04 18:23 34.60620 33.91182 12695 ft 270 kts 164°
2026-05-04 18:23 34.58854 33.91994 12307 ft 269 kts 165°
2026-05-04 18:23 34.57096 33.92801 11898 ft 268 kts 164°
2026-05-04 18:23 34.55365 33.93597 11508 ft 267 kts 164°
2026-05-04 18:24 34.53622 33.94384 11114 ft 265 kts 167°
2026-05-04 18:24 34.51853 33.94866 10720 ft 257 kts 183°
2026-05-04 18:24 34.50139 33.94579 10373 ft 244 kts 205°
2026-05-04 18:24 34.48683 33.93632 10145 ft 230 kts 224°
2026-05-04 18:25 34.47631 33.92263 10000 ft 222 kts 240°
2026-05-04 18:25 34.46917 33.90599 9807 ft 223 kts 251°
2026-05-04 18:25 34.46402 33.88823 9545 ft 224 kts 255°
2026-05-04 18:25 34.46027 33.87010 9247 ft 221 kts 265°
2026-05-04 18:26 34.46164 33.85201 8957 ft 217 kts 286°
2026-05-04 18:26 34.46754 33.83521 8721 ft 219 kts 296°
2026-05-04 18:26 34.47598 33.81977 8455 ft 223 kts 304°
2026-05-04 18:26 34.48631 33.80548 8168 ft 226 kts 315°
2026-05-04 18:27 34.49985 33.79557 7871 ft 231 kts 336°
2026-05-04 18:27 34.51507 33.78944 7560 ft 231 kts 337°
2026-05-04 18:27 34.53031 33.78296 7250 ft 229 kts 335°
2026-05-04 18:27 34.54506 33.77618 6948 ft 228 kts 335°
2026-05-04 18:28 34.56002 33.76920 6635 ft 228 kts 335°
2026-05-04 18:28 34.57462 33.76244 6409 ft 226 kts 335°
2026-05-04 18:28 34.58946 33.75561 6329 ft 225 kts 335°
2026-05-04 18:28 34.60422 33.74880 6262 ft 228 kts 335°
2026-05-04 18:29 34.61889 33.74206 6181 ft 228 kts 336°
2026-05-04 18:29 34.63402 33.73518 5961 ft 231 kts 336°
2026-05-04 18:29 34.64900 33.72853 5656 ft 229 kts 336°
2026-05-04 18:29 34.66393 33.72194 5386 ft 226 kts 336°
2026-05-04 18:30 34.69322 33.70890 4859 ft 224 kts 336°
2026-05-04 18:30 34.70794 33.70245 4609 ft 223 kts 340°
2026-05-04 18:30 34.72295 33.70118 4474 ft 219 kts 14°
2026-05-04 18:31 34.73580 33.71111 4218 ft 220 kts 45°
2026-05-04 18:31 34.74554 33.72528 3906 ft 220 kts 50°
2026-05-04 18:31 34.75515 33.73944 3638 ft 217 kts 47°
2026-05-04 18:31 34.76544 33.75277 3402 ft 213 kts 42°
2026-05-04 18:32 34.77629 33.76473 3183 ft 209 kts 37°
2026-05-04 18:32 34.78773 33.77543 2999 ft 207 kts 32°
2026-05-04 18:32 34.80025 33.78334 2964 ft 202 kts
2026-05-04 18:32 34.81424 33.78525 3041 ft 202 kts
2026-05-04 18:33 34.82784 33.79027 3142 ft 207 kts 19°
2026-05-04 18:33 34.84144 33.79725 3125 ft 211 kts 20°
2026-05-04 18:33 34.85486 33.80433 3093 ft 208 kts 20°
2026-05-04 18:33 34.86793 33.81119 3043 ft 202 kts 20°
2026-05-04 18:34 34.88080 33.81764 3004 ft 196 kts 17°
2026-05-04 18:34 34.89365 33.82299 2974 ft 195 kts 15°
2026-05-04 18:34 34.90657 33.82814 2939 ft 196 kts 15°
2026-05-04 18:34 34.91973 33.83258 2894 ft 193 kts
2026-05-04 18:35 34.93280 33.83023 2889 ft 187 kts 338°
2026-05-04 18:35 34.94496 33.82450 2875 ft 188 kts 332°
2026-05-04 18:35 34.95444 33.81431 2841 ft 183 kts 293°
2026-05-04 18:35 34.95869 33.79969 2720 ft 183 kts 289°
2026-05-04 18:36 34.96389 33.78571 2566 ft 182 kts 298°
2026-05-04 18:36 34.97029 33.77234 2422 ft 181 kts 296°
2026-05-04 18:36 34.97392 33.75811 2269 ft 173 kts 268°
2026-05-04 18:36 34.97001 33.74484 2110 ft 170 kts 230°
2026-05-04 18:37 34.96189 33.73427 1945 ft 169 kts 230°
2026-05-04 18:37 34.95418 33.72378 1765 ft 163 kts 230°
2026-05-04 18:37 34.94661 33.71400 1592 ft 154 kts 229°
2026-05-04 18:37 34.93924 33.70467 1543 ft 153 kts 228°
2026-05-04 18:38 34.93148 33.69499 1346 ft 163 kts 227°
2026-05-04 18:38 34.92382 33.68552 1069 ft 153 kts 227°
2026-05-04 18:38 34.91651 33.67650 916 ft 147 kts 226°
2026-05-04 18:38 34.90926 33.66756 758 ft 148 kts 227°
2026-05-04 18:39 34.90199 33.65862 522 ft 149 kts 225°
2026-05-04 18:39 34.89477 33.64981 414 ft 146 kts 226°
2026-05-04 18:39 34.88750 33.64095 198 ft 147 kts 226°
2026-05-04 18:39 34.88042 33.63210 15 ft 139 kts 226°
2026-05-04 18:40 34.87550 33.62608 11 ft 63 kts 225°
2026-05-04 18:40 34.87362 33.62368 10 ft 18 kts 250°
2026-05-04 18:40 34.87399 33.62264 10 ft 11 kts 315°
2026-05-04 18:40 34.87429 33.62229 10 ft 2 kts 315°
2026-05-04 18:41 34.87440 33.62215 10 ft 2 kts 315°
2026-05-04 18:41 34.87457 33.62188 11 ft 5 kts 299°
2026-05-04 18:41 34.87457 33.62140 10 ft 6 kts 245°
2026-05-04 18:41 34.87412 33.62080 10 ft 11 kts 224°
2026-05-04 18:42 34.87353 33.62009 10 ft 12 kts 225°
2026-05-04 18:42 34.87291 33.61933 11 ft 12 kts 225°
2026-05-04 18:42 34.87233 33.61863 10 ft 11 kts 225°
2026-05-04 18:42 34.87181 33.61800 11 ft 9 kts 225°
2026-05-04 18:43 34.87138 33.61747 12 ft 10 kts 225°
2026-05-04 18:43 34.87077 33.61672 14 ft 9 kts 229°
2026-05-04 18:43 34.87080 33.61612 15 ft 6 kts 302°
2026-05-04 18:43 34.87092 33.61574 16 ft 3 kts 274°
2026-05-04 18:44 34.87077 33.61532 17 ft 8 kts 227°
2026-05-04 18:44 34.87048 33.61497 18 ft 9 kts 225°
2026-05-04 18:44 34.86964 33.61396 21 ft 11 kts 225°
2026-05-04 18:44 34.86939 33.61330 23 ft 7 kts 282°
2026-05-04 18:45 34.86956 33.61295 25 ft 2 kts 306°
2026-05-04 18:45 34.86961 33.61264 26 ft 3 kts 264°
2026-05-04 18:45 34.86956 33.61237 27 ft 5 kts 256°
2026-05-04 18:45 34.86948 33.61201 28 ft 2 kts 257°
2026-05-04 18:46 34.86944 33.61181 28 ft 2 kts 254°
2026-05-04 18:46 34.86941 33.61168 29 ft 0 kts 255°
2026-05-04 18:46 34.86940 33.61166 29 ft 0 kts 255°
2026-05-04 18:46 34.86940 33.61165 29 ft 0 kts 255°